Weather History for Spokane, WA

Change the Weather History Date:

Friday, January 20, 2012

  Actual Average Record
Temperature  
Mean Temperature 25 °F 30 °F  
Max Temperature 32 °F 35 °F 48 °F (1899)
Min Temperature 17 °F 26 °F -19 °F (1937)
Degree Days  
Heating Degree Days 40 35  
Month to date heating degree days 728 724  
Since 1 July heating degree days 3399 3558  
Cooling Degree Days 0 0  
Month to date cooling degree days 0 0  
Year to date cooling degree days 0 0  
Moisture  
Dew Point 22 °F    
Average Humidity 92    
Maximum Humidity 100    
Minimum Humidity 84    
Precipitation  
Precipitation 0.12 in 0.05 in 0.59 in (1896)
Month to date precipitation 1.10 1.23  
Year to date precipitation 1.10 1.23  
Snow  
Snow 0.10 in 0.20 in 5.00 in (1996)
Month to date snowfall 10.3 8.3  
Since 1 July snowfall 19.3 30.4  
Snow Depth 8.00 in    
Sea Level Pressure  
Sea Level Pressure 29.69 in    
Wind  
Wind Speed 6 mph (ENE)    
Max Wind Speed 10 mph    
Max Gust Speed 12 mph    
Visibility 3 miles    
Events Rain , Snow    
T = Trace of Precipitation, MM = Missing Value Source: NWS Daily Summary

Daily Weather History Graph

Daily Weather History Graph

Search for Another Location

Airport:

Trip Planner

Search our weather history database for the weather conditions in past years. The results will help you decide how hot, cold, wet, or windy it might be!

Date:

Astronomy

Jan. 20, 2012 Rise Set
Actual Time 7:30 AM PST 4:32 PM PST
Civil Twilight 6:55 AM PST 5:06 PM PST
Nautical Twilight 6:17 AM PST 5:44 PM PST
Astronomical Twilight 5:41 AM PST 6:21 PM PST
Moon 5:17 AM PST (1/20) 2:04 PM PST (1/20)
Length of Visible Light 10h 10m
Length of Day
9h 02m
Waning Crescent, 7% of the Moon is Illuminated
Jan 20
Waning Crescent
Jan 22
New
Jan 30
First Quarter
Feb 7
Full
Feb 14
Last Quarter

Hourly Weather History & Observations

Time (PST) Temp. Windchill Dew Point Humidity Pressure Visibility Wind Dir Wind Speed Gust Speed Precip Events Conditions
12:41 AM 19.4 °F - 19.4 °F 100% 29.77 in 3.0 mi Calm Calm - N/A   Overcast
12:53 AM 19.9 °F 12.1 °F 18.0 °F 92% 29.87 in 4.0 mi SE 5.8 mph - N/A   Overcast
1:39 AM 17.6 °F 7.3 °F 15.8 °F 93% 29.78 in 4.0 mi SSE 8.1 mph - N/A   Overcast
1:53 AM 18.0 °F 8.7 °F 16.0 °F 92% 29.88 in 6.0 mi SSE 6.9 mph - N/A   Overcast
2:53 AM 18.0 °F 11.1 °F 15.1 °F 88% 29.90 in 6.0 mi SSE 4.6 mph - N/A   Overcast
3:15 AM 17.6 °F - 15.8 °F 93% 29.81 in 6.0 mi Calm Calm - 0.00 in Snow Light Snow
3:27 AM 17.6 °F - 15.8 °F 93% 29.80 in 6.0 mi Calm Calm - 0.00 in Snow Light Snow
3:53 AM 18.0 °F - 16.0 °F 92% 29.89 in 7.0 mi Calm Calm - 0.00 in   Overcast
4:44 AM 17.6 °F 12.3 °F 15.8 °F 93% 29.81 in 7.0 mi North 3.5 mph - N/A   Overcast
4:53 AM 19.0 °F - 16.0 °F 88% 29.91 in 7.0 mi Calm Calm - N/A   Overcast
5:09 AM 17.6 °F 12.3 °F 15.8 °F 93% 29.82 in 10.0 mi North 3.5 mph - N/A   Mostly Cloudy
5:53 AM 19.0 °F - 16.0 °F 88% 29.91 in 10.0 mi Calm Calm - N/A   Overcast
6:35 AM 19.4 °F 11.5 °F 17.6 °F 93% 29.81 in 3.0 mi ENE 5.8 mph - 0.00 in Snow Light Snow
6:53 AM 19.9 °F 12.1 °F 17.1 °F 89% 29.90 in 4.0 mi ENE 5.8 mph - 0.00 in Snow Light Snow
7:38 AM 19.4 °F 10.4 °F 17.6 °F 93% 29.80 in 3.0 mi NE 6.9 mph - 0.00 in   Light Freezing Drizzle
7:53 AM 19.9 °F 12.1 °F 19.0 °F 96% 29.90 in 4.0 mi NE 5.8 mph - 0.00 in   Overcast
8:05 AM 21.2 °F - 19.4 °F 93% 29.81 in 2.0 mi Calm Calm - 0.00 in   Light Freezing Drizzle
8:19 AM 21.2 °F 13.6 °F 19.4 °F 93% 29.80 in 2.0 mi NE 5.8 mph - N/A   Overcast
8:35 AM 21.2 °F 13.6 °F 19.4 °F 93% 29.80 in 3.0 mi NNE 5.8 mph - 0.00 in   Overcast
8:53 AM 21.0 °F 12.4 °F 19.0 °F 92% 29.89 in 3.0 mi NE 6.9 mph - 0.00 in Snow Light Snow
9:28 AM 21.2 °F 12.6 °F 19.4 °F 93% 29.80 in 2.0 mi NE 6.9 mph - 0.00 in   Overcast
9:37 AM 21.2 °F 12.6 °F 19.4 °F 93% 29.80 in 1.5 mi NE 6.9 mph - 0.00 in   Overcast
9:39 AM 21.2 °F 12.6 °F 19.4 °F 93% 29.80 in 1.5 mi NE 6.9 mph - 0.00 in   Overcast
9:53 AM 21.9 °F 14.5 °F 21.0 °F 96% 29.89 in 1.0 mi NE 5.8 mph - 0.00 in   Overcast
9:55 AM 21.2 °F 12.6 °F 21.2 °F 100% 29.80 in 0.8 mi NE 6.9 mph - N/A   Overcast
10:08 AM 21.2 °F 12.6 °F 21.2 °F 100% 29.80 in 0.8 mi NE 6.9 mph - N/A   Overcast
10:36 AM 23.0 °F 15.8 °F 21.2 °F 93% 29.80 in 0.8 mi NE 5.8 mph - 0.00 in   Light Freezing Drizzle
10:53 AM 23.0 °F 13.9 °F 21.9 °F 96% 29.87 in 0.8 mi NE 8.1 mph - 0.00 in   Light Freezing Drizzle
11:02 AM 23.0 °F 14.7 °F 21.2 °F 93% 29.78 in 0.8 mi NE 6.9 mph - 0.00 in Snow Light Snow
11:53 AM 24.1 °F 16.0 °F 21.9 °F 91% 29.83 in 0.8 mi NE 6.9 mph - 0.01 in Snow Light Snow
12:07 PM 24.8 °F 16.9 °F 23.0 °F 93% 29.73 in 0.8 mi NE 6.9 mph - 0.00 in Snow Light Snow
12:25 PM 24.8 °F 16.1 °F 23.0 °F 93% 29.72 in 1.5 mi ENE 8.1 mph - 0.00 in Rain Light Freezing Rain
12:53 PM 25.0 °F 15.5 °F 23.0 °F 92% 29.78 in 1.5 mi NE 9.2 mph - 0.01 in Rain Light Freezing Rain
1:12 PM 24.8 °F 15.3 °F 23.0 °F 93% 29.67 in 2.0 mi ENE 9.2 mph - 0.00 in   Overcast
1:13 PM 24.8 °F 15.3 °F 23.0 °F 93% 29.67 in 1.0 mi NE 9.2 mph - 0.00 in   Overcast
1:53 PM 26.1 °F 19.4 °F 25.0 °F 96% 29.73 in 1.0 mi NE 5.8 mph - 0.00 in   Overcast
2:53 PM 27.0 °F 18.7 °F 25.0 °F 92% 29.70 in 1.0 mi NE 8.1 mph - N/A   Overcast
3:53 PM 27.0 °F 18.7 °F 25.0 °F 92% 29.68 in 1.0 mi NE 8.1 mph - N/A   Overcast
4:53 PM 27.0 °F 18.7 °F 25.0 °F 92% 29.63 in 1.0 mi NE 8.1 mph - N/A   Overcast
5:51 PM 26.6 °F 19.1 °F 26.6 °F 100% 29.52 in 1.0 mi NE 6.9 mph - 0.00 in Rain Light Freezing Rain
5:53 PM 27.0 °F 20.5 °F 26.1 °F 96% 29.60 in 1.0 mi NE 5.8 mph - 0.00 in Rain Light Freezing Rain
6:13 PM 28.4 °F 21.2 °F 26.6 °F 93% 29.50 in 3.0 mi ENE 6.9 mph - 0.00 in Rain Light Freezing Rain
6:53 PM 28.0 °F 19.3 °F 27.0 °F 96% 29.54 in 3.0 mi ENE 9.2 mph - 0.01 in Rain Light Freezing Rain
7:53 PM 28.9 °F 21.9 °F 27.0 °F 92% 29.49 in 3.0 mi ENE 6.9 mph - 0.01 in Rain Light Freezing Rain
8:53 PM 30.0 °F 24.1 °F 28.9 °F 96% 29.42 in 3.0 mi NE 5.8 mph - 0.01 in Rain Light Freezing Rain
9:35 PM 30.2 °F 25.4 °F 28.4 °F 93% 29.34 in 3.0 mi ENE 4.6 mph - 0.01 in   Overcast
9:49 PM 30.2 °F 24.3 °F 28.4 °F 93% 29.32 in 3.0 mi ENE 5.8 mph - 0.01 in Rain Light Freezing Rain
9:53 PM 30.0 °F 24.1 °F 28.9 °F 96% 29.39 in 3.0 mi ENE 5.8 mph - 0.01 in Rain Light Freezing Rain
10:11 PM 30.2 °F 26.7 °F 28.4 °F 93% 29.31 in 2.5 mi East 3.5 mph - 0.00 in Rain Light Freezing Rain
10:53 PM 30.2 °F 23.4 °F 30.2 °F 100% 29.30 in 1.5 mi ENE 6.9 mph - N/A Rain Light Freezing Rain
11:07 PM 30.2 °F 25.4 °F 30.2 °F 100% 29.29 in 3.0 mi East 4.6 mph - 0.00 in Rain Light Freezing Rain
11:29 PM 32.0 °F 26.4 °F 30.2 °F 93% 29.28 in 3.0 mi ENE 5.8 mph - 0.01 in Rain Light Rain
11:42 PM 30.2 °F 26.7 °F 30.2 °F 100% 29.27 in 2.5 mi ENE 3.5 mph - 0.01 in Rain Light Freezing Rain
11:53 PM 32.0 °F 26.4 °F 30.2 °F 93% 29.26 in 1.5 mi East 5.8 mph - N/A Rain Light Freezing Rain